Погода в Шокчанге

Вьетнам     9°36′09″N   105°58′23″E
темп.,
°C
ветер,
м/с
пор.,
м/с
влажн.,
%
обл.,
%
осадки,
мм/ч
давл.,
гПа
погр.,
м
18 мая, ср
ср1801:00+26ююв3484100 7.4 1009210
04:00+27всв1184100 0.1 100988
07:00+28в117883 0.1 1010236
10:00+31ююв116163 0.0 10111154
13:00+32ююв3357100 1.0 10081277
16:00+30ююз4465100 2.2 1007750
19:00+28юз2480100 7.3 1009223
22:00+27зюз2282100 3.9 101197
19 мая, чт
чт1901:00+26юз2490100 6.3 1010196
04:00+25зюз2590100 4.2 1009211
07:00+25з3786100 5.2 1011257
10:00+29з366899 0.0 1012685
13:00+32з455871 0.3 10091436
16:00+32зсз565298 0.3 10071061
19:00+29зсз477187 0.4 1009218
22:00+27з3780100 0.0 1011241
20 мая, пт
пт2001:00+27з378579 0.0 1009267
04:00+27з248598 0.0 1009161
07:00+28з247873 0.0 1010282
10:00+32з565643 0.0 10101473
13:00+34зсз5649100 0.1 10072069
16:00+33з465299 0.3 10051194
19:00+30зсз5106598 0.4 1007383
22:00+28зюз497610 0.0 1009411
21 мая, сб
сб2101:00+27зюз3981100 0.0 1008406
04:00+27з4984100 0.1 1007414
07:00+28з4879100 0.8 1008493
10:00+32з5757100 0.6 10081436
13:00+33сз4751100 0.9 10061719
16:00+33зсз5648100 0.1 10041306
19:00+30зсз476098 0.1 1006236
22:00+29з4772100 0.0 1007361
22 мая, вс
вс2201:00+28зюз3881100 0.4 1006438
04:00+28зюз4980100 2.1 1005472
07:00+28зюз4976100 2.2 1006813
10:00+32з71055100 0.0 10061742
13:00+33з71050100 0.1 10051985
16:00+32зсз6953100 0.2 10031423
19:00+30з5962100 0.2 1006497
22:00+28зюз4875100 0.0 1007593